Location: Monfort
(47.1967°N, 0.2115°W)
Time: 11:58:50
(UTC+00:00)

CZ-4B R/B - Pass Details

Date: 24 October 2020
Orbit: 808 x 882 km, 99.1° (Epoch: 27 November)

Event Time Altitude Azimuth Distance (km) Brightness Sun altitude
Rises 17:48:53 0° 181° (S) 3,461 6.5 -9.5°
Reaches altitude 10° 17:51:22 10° 187° (S) 2,521 5.9 -9.9°
Maximum altitude 17:56:45 46° 260° (W) 1,145 4.5 -10.8°
Drops below altitude 10° 18:02:06 10° 334° (NNW) 2,499 5.9 -11.7°
Sets 18:04:34 0° 340° (NNW) 3,428 6.6 -12.2°
